Preview of NWS' New Version of Forecast
This preview is not operational and should not be used for support decisions.
Latest weather observations around

Wilkes-Barre - Scranton, Wilkes-Barre / Scranton International Airport (KAVP)

Using English Units (Switch to International System of Units)
Date/ Time (EDT) Wind (mph) Vis. (mi) Weather Sky Cond. Temp (°F) Rel. Humidity Wind Chill (°F) Heat Index (°F) Pressure Precip. (in)
Air Dwpt 6 hour Altimeter (inHg) Sea level (inHg) 1 hr 3 hr 6 hr
Max Min
Jun 18 15:54 NE 5 10 Cloudy FEW027 BKN039 OVC055 71 64     79%   72 29.89 29.87 0    
Jun 18 14:54 NE 5 5 Rain and Fog/Mist SCT060 BKN075 OVC110 69 65     87%     29.9 29.87 0    
Jun 18 13:54 NE 5 10 Light Rain SCT039 BKN065 OVC110 70 64     81%     29.9 29.88 0   1
Jun 18 12:54 3 10 Cloudy BKN060 OVC070 70 64     81%     29.92 29.9      
Jun 18 11:54 ENE 7 10 Cloudy OVC041 67 64     90%     29.94 29.92 0    
Jun 18 11:30 E 5 4 Light Rain and Fog/Mist FEW030 BKN036 OVC044 65 63     93%     29.95   0    
Jun 18 11:23 ESE 5 3 Light Rain and Fog/Mist FEW015 BKN029 OVC035 63 62     97%     29.95   0    
Jun 18 11:20 E 6 2 Rain and Fog/Mist FEW015 BKN030 OVC035 63 62     97%     29.95   0    
Jun 18 11:18 ESE 6 1.75 Rain and Fog/Mist FEW015 BKN028 OVC033 63 61     93%     29.95   0    
Jun 18 11:14 E 9 2 Heavy Rain and Fog/Mist FEW016 BKN030 OVC036 63 61     93%     29.95   0    
Jun 18 10:54   9 Light Rain FEW008 BKN025 OVC030 63 63     100%     29.96 29.94 0 1  
Jun 18 10:52   8 Light Rain FEW006 BKN023 OVC030 63 63     100%     29.95   0    
Jun 18 10:42 ENE 11 3 Light Rain and Fog/Mist FEW003 BKN013 OVC023 62 62     100%     29.95   0    
Jun 18 10:31   1.25 Heavy Rain and Fog/Mist FEW003 SCT007 OVC013 63 63     100%     29.95   0    
Jun 18 10:24 NNE 9 2 Heavy Rain and Fog/Mist FEW003 BKN008 OVC015 66 66     100%     29.95   0    
Jun 18 10:21 NE 11 2 Rain and Fog/Mist FEW003 SCT010 OVC015 66 66     100%     29.95   0    
Jun 18 10:17 NE 6 1.5 Rain and Fog/Mist FEW003 OVC013 66 66     100%     29.95   0    
Jun 18 10:14 NE 9 1 Heavy Rain and Fog/Mist BKN013 OVC021 66 66     100%     29.95   0    
Jun 18 10:00 ENE 3 0.75 Heavy Rain and Fog/Mist FEW002 OVC017 66 66     100%     29.95   0    
Jun 18 09:54 NNE 5 2 Rain and Fog/Mist FEW002 BKN017 OVC030 66 66     100%     29.95 29.93 0    
Jun 18 09:25 NE 6 1 Light Rain and Fog/Mist SCT002 OVC019 66 66     100%     29.95   0    
Jun 18 09:13 ENE 5 3 Rain and Fog/Mist OVC021 66 66     100%     29.95   0    
Jun 18 08:54 NE 5 2 Heavy Rain and Fog/Mist BKN025 OVC034 65 65     100%     29.95 29.93 0    
Jun 18 08:48 Calm 2 Rain and Fog/Mist SCT027 OVC034 64 64     100%     29.95   0    
Jun 18 08:35 Calm 1 Heavy Rain and Fog/Mist FEW011 BKN023 OVC032 65 65     100%     29.96   0    
Jun 18 08:28 Calm 2 Rain and Fog/Mist FEW003 BKN018 OVC033 66 66     100%     29.96   0    
Jun 18 08:17 Calm 1 Heavy Rain and Fog/Mist FEW010 BKN018 OVC034 65 65     100%     29.95   0    
Jun 18 08:09 Calm 0.5 Heavy Rain and Fog SCT015 BKN031 OVC039 65 65     100%     29.95   0    
Jun 18 08:00 NNW 5 1.75 Rain and Fog/Mist FEW018 BKN032 OVC041 65 65     100%     29.96   0    
Jun 18 07:54 Calm 4 Light Rain and Fog/Mist BKN037 OVC044 65 65     100%     29.95 29.93 0   0
Jun 18 07:20 Calm 3 Light Rain and Fog/Mist SCT030 OVC042 65 64     97%     29.95   0    
Jun 18 07:06 Calm 1.25 Heavy Rain and Fog/Mist SCT016 BKN030 OVC042 65 64     97%     29.96   0    
Jun 18 06:54 Calm 1.75 Heavy Rain and Fog/Mist SCT013 BKN018 OVC050 65 64     97%     29.96 29.94 0    
Jun 18 06:50 Calm 4 Light Rain and Fog/Mist SCT013 BKN018 OVC050 64 64     100%     29.96   0    
Jun 18 05:54 E 3 9 Cloudy FEW013 BKN060 OVC070 64 64     100%     29.95 29.93 0    
Jun 18 05:30 E 3 7 Light Rain FEW013 BKN065 OVC110 64 64     100%     29.95   0    
Jun 18 04:54 Calm 6 Light Rain and Fog/Mist BKN014 BKN075 OVC090 64 64     100%     29.96 29.94 0 0  
Jun 18 04:39 Calm 7 Light Rain FEW003 BKN028 OVC090 65 64     97%     29.96   0    
Jun 18 04:10 Calm 8 Cloudy SCT002 BKN014 OVC075 65 64     97%     29.96        
Jun 18 03:58 Calm 4 Fog/Mist BKN002 OVC014 65 64     97%     29.96        
Jun 18 03:54 Calm 2 Fog/Mist OVC002 65 65     100%     29.96 29.94      
Jun 18 03:37 Calm 0.5 Fog VV002 65 65     100%     29.96        
Jun 18 03:16 Calm 0.25 Fog VV002 66 65     96%     29.97        
Jun 18 03:05 Calm 0.5 Fog VV002 65 65     100%     29.97        
Jun 18 02:54 Calm 1.5 Fog/Mist OVC002 66 65     96%     29.97 29.95      
Jun 18 02:49 Calm 1 Fog/Mist VV002 66 64     94%     29.97        
Jun 18 02:34 Calm 0.25 Fog VV002 66 66     100%     29.98        
Jun 18 02:19 Calm 0.25 Fog VV002 66 65     96%     29.98        
Jun 18 02:04 Calm 0.5 Fog VV002 66 65     96%     29.99        
Jun 18 01:54 Calm 0.25 Fog VV002 66 65     96%     29.99 29.97      
Jun 18 01:47 Calm 0.5 Fog VV002 66 65     96%     29.99        
Jun 18 01:06 Calm 1.75 Fog/Mist OVC002 67 66     97%     30        
Jun 18 00:54 Calm 4 Fog/Mist OVC002 67 65     93%     30 29.98      
Jun 18 00:43 Calm 3 Fog/Mist BKN002 OVC019 67 66     97%     30.01        
Jun 18 00:33 Calm 2.5 Fog/Mist BKN002 OVC019 67 66     97%     30.01        
Jun 17 23:54 Calm 3 Fog/Mist FEW008 OVC020 67 66     97%     30.01 30      
Jun 17 23:30 Calm 3 Fog/Mist SCT008 SCT015 OVC021 67 65     93%     30.01        
Jun 17 23:18 Calm 3 Fog/Mist BKN008 BKN015 OVC020 67 66     97%     30.01        
Jun 17 23:11 Calm 2.5 Fog/Mist BKN008 OVC019 67 66     97%     30.01        
Jun 17 22:54 Calm 3 Fog/Mist BKN008 OVC017 67 66     97%     30.01 29.99      
Jun 17 22:47 Calm 2 Fog/Mist BKN007 OVC017 67 66     97%     30        
Jun 17 22:38 Calm 3 Fog/Mist OVC007 67 66     97%     30        
Jun 17 22:27 Calm 2 Fog/Mist OVC006 67 66     97%     30        
Jun 17 22:14 Calm 4 Fog/Mist OVC005 67 66     97%     30        
Jun 17 21:54 Calm 4 Fog/Mist OVC003 67 66     97%     30 29.99      
Jun 17 21:20 Calm 2 Fog/Mist BKN002 OVC021 67 66     97%     29.99        
Jun 17 21:07 Calm 1 Fog/Mist BKN002 BKN022 OVC031 67 66     97%     29.99        
Jun 17 20:57 NNW 3 1 Fog/Mist SCT002 BKN022 BKN031 67 66     97%     29.99        
Jun 17 20:54 Calm 2 Fog/Mist FEW002 SCT022 BKN031 67 66     97%     29.98 29.97      
Jun 17 20:42 Calm 7 Mostly Cloudy FEW002 BKN023 BKN033 67 66     97%     29.99        
Jun 17 20:34 Calm 2.5 Fog/Mist FEW003 BKN019 BKN025 67 66     97%     29.99        
Jun 17 20:10 Calm 7 Cloudy FEW002 BKN020 OVC025 67 66     97%     30        
Jun 17 19:54 N 3 7 Cloudy FEW017 OVC025 67 66     97%     29.99 29.97 0   0
Jun 17 19:43 Calm 4 Light Rain and Fog/Mist BKN024 OVC034 67 66     97%     29.99   0    
Jun 17 19:34 ENE 3 2.5 Light Rain and Fog/Mist FEW007 SCT024 OVC032 67 66     97%     29.99   0    
Jun 17 19:25 ENE 3 1.75 Rain and Fog/Mist FEW005 BKN026 OVC036 67 65     93%     29.99   0    
Jun 17 19:12 Calm 3 Light Rain and Fog/Mist FEW005 BKN017 OVC025 67 65     93%     29.99   0    
Jun 17 18:54 NNE 3 1.25 Rain and Fog/Mist BKN005 BKN014 OVC030 67 66     97%     29.99 29.97 0    
Jun 17 18:28 Calm 1.75 Light Rain and Fog/Mist BKN007 BKN032 OVC045 68 65     90%     29.99   0    
Jun 17 18:20 Calm 2.5 Light Rain and Fog/Mist SCT007 BKN034 OVC045 68 65     90%     29.99   0    
Jun 17 18:14 Calm 2.5 Light Rain and Fog/Mist BKN008 BKN027 OVC042 68 66     93%     29.99   0    
Jun 17 18:07 Calm 2.5 Light Rain and Fog/Mist SCT009 BKN027 OVC042 68 65     90%     30   0    
Jun 17 18:05 Calm 3 Light Rain and Fog/Mist SCT009 BKN033 OVC042 68 65     90%     30   0    
Jun 17 17:54 Calm 7 Light Rain FEW010 BKN040 OVC047 69 64     84%     30 29.98 0    
Jun 17 16:54 WSW 3 3 Light Rain SCT025 SCT037 OVC046 69 64     84%     30.01 29.99 0 0  
Jun 17 15:54 W 7 10 Cloudy FEW021 BKN050 OVC075 71 63     76%   71 30.02 29.99      
Jun 17 15:02 W 5 10 Cloudy SCT020 OVC050 72 63     73%   72 30.02        
Jun 17 14:54 WNW 5 10 Mostly Cloudy BKN020 BKN050 73 63     71%   73 30.01 29.99 0    
Jun 17 13:54 Calm 10 Light Rain OVC017 69 62     78%     30.03 30.01 0   0
Jun 17 13:36 W 3 10 Light Rain OVC016 69 62     78%     30.03   0    
Jun 17 12:54 Calm 10 Cloudy OVC012 67 62     84%     30.03 30.01      
Jun 17 12:37 W 3 10 Cloudy BKN010 OVC017 67 62     84%     30.03        
Jun 17 12:13 Calm 10 Cloudy FEW007 OVC016 68 63     84%     30.02        
Jun 17 11:54 Calm 9 Cloudy BKN006 OVC016 65 62     90%     30.02 30      
Jun 17 11:12 WNW 6 8 Cloudy BKN009 OVC013 64 62     93%     30.02        
Jun 17 10:54 W 5 9 Cloudy BKN010 OVC014 64 62     93%     30.01 30      
Jun 17 10:29 Calm 8 Cloudy OVC010 64 61     90%     30.01        
Jun 17 09:54 Calm 7 Cloudy OVC006 63 61     93%     30.01 29.99      
Jun 17 08:54 WNW 6 7 Cloudy OVC006 62 61     96%     30.01 30      
Jun 17 08:12 WSW 7 8 Cloudy BKN006 OVC011 64 62     93%     30        
Jun 17 07:54 N 3 8 Cloudy OVC007 64 62     93%     29.98 29.96     0
Jun 17 07:21 NNE 6 7 Cloudy OVC006 63 61     93%     29.97        
Jun 17 06:54 Calm 6 Fog/Mist OVC004 62 61     96%     29.99 29.97      
Jun 17 06:19 NNW 3 8 Cloudy OVC004 62 61     96%     29.99        
Jun 17 05:54 Calm 10 Cloudy OVC006 63 61     93%     29.98 29.96 0    
Jun 17 04:54 W 7 5 Light Rain and Fog/Mist OVC005 63 62     97%     29.95 29.93 0 0  
Jun 17 03:54 NW 6 5 Light Rain and Fog/Mist OVC004 64 63     96%     29.93 29.9 0    
Jun 17 02:54 NW 5 10 Cloudy OVC006 65 63     93%     29.92 29.9      
Jun 17 02:43 NW 5 10 Clear   65 64     97%     29.92        
Jun 17 02:36 NW 3 10 Clear   65 64     97%     29.91        
Jun 17 02:17 NW 5 10 Clear   66 64     93%     29.91        
Jun 17 01:54 WNW 3 10 Clear   66 64     93%     29.91 29.89     0
Jun 17 01:18 NW 5 10 Cloudy BKN009 BKN014 OVC023 66 64     93%     29.9        
Jun 17 01:05 NNW 6 10 Cloudy SCT007 BKN014 OVC023 66 64     93%     29.89        
Jun 17 00:54 N 5 9 Cloudy BKN007 OVC021 67 64     90%     29.89 29.87      
Jun 17 00:28 NNW 3 10 Cloudy BKN008 BKN020 OVC110 67 65     93%     29.9        
Jun 17 00:17 NNW 5 10 Cloudy SCT008 BKN020 OVC110 67 65     93%     29.9        
Jun 16 23:54 NNE 5 10 Mostly Cloudy BKN019 BKN120 67 65     93%     29.89 29.86      
Jun 16 23:49 Calm 10 Mostly Cloudy BKN019 BKN120 66 64     94%     29.89        
Jun 16 23:34 N 3 10 Mostly Cloudy FEW010 SCT016 BKN110 67 64     90%     29.89        
Jun 16 23:16 Calm 8 Mostly Cloudy FEW008 BKN012 BKN022 67 66     97%     29.89        
Jun 16 23:09 Calm 8 Mostly Cloudy FEW004 BKN008 BKN020 67 66     97%     29.9        
Jun 16 22:54 W 5 9 Mostly Cloudy FEW004 BKN019 BKN050 67 65     93%     29.89 29.87   0  
Jun 16 22:03 WSW 3 9 Cloudy SCT006 OVC019 68 66     93%     29.87        
Jun 16 21:54 SW 3 10 Cloudy BKN008 OVC019 68 66     93%     29.86 29.84 0    
Jun 16 21:25 Calm 9 Cloudy BKN009 OVC016 68 66     93%     29.85   0    
Jun 16 21:08 SW 3 6 Light Rain and Fog/Mist BKN010 BKN016 OVC029 68 66     93%     29.85   0    
Jun 16 20:54 WSW 8 3 Rain and Fog/Mist SCT008 BKN016 OVC032 68 66     93%     29.85 29.83 0    
Jun 16 20:36 SW 6 1.5 Heavy Rain and Fog/Mist FEW006 BKN025 OVC030 70 67     90%     29.84   0    
Jun 16 20:23 SW 7 9 Cloudy FEW009 BKN027 OVC060 70 67     90%     29.84        
Jun 16 19:54 SW 7 7 Cloudy FEW033 BKN055 OVC075 71 67     87%   72 29.83 29.81 0   0
Jun 16 18:54 SW 8 8 Cloudy FEW019 BKN038 OVC100 72 67     84%   73 29.83 29.81 0    
Jun 16 18:17 SW 6 8 Cloudy SCT026 BKN038 OVC110 73 68     84%   74 29.82   0    
Jun 16 17:54 W 7 7 Light Rain BKN025 OVC039 73 67     81%   74 29.82 29.8 0    
Jun 16 17:04 WSW 10 9 Light Rain BKN027 OVC039 74 65     74%   74 29.82   0    
Jun 16 16:54 WSW 9 9 Cloudy FEW024 SCT029 OVC038 74 65     74%   74 29.82 29.8   0  
Jun 16 16:15 WSW 10 10 Cloudy FEW028 BKN033 OVC040 74 65     74%   74 29.82        
Jun 16 15:54 SW 13 10 Cloudy BKN028 OVC033 74 64     71%   74 29.82 29.8      
Jun 16 14:54 WSW 10 9 Cloudy FEW028 SCT039 OVC048 73 64     73%   73 29.82 29.8 0    
Jun 16 14:45 SW 8 9 Cloudy SCT027 BKN039 OVC048 72 64     76%   72 29.82   0    
Jun 16 13:54 SW 13 6 Light Rain OVC026 70 63     78%     29.83 29.81 0   0
Jun 16 13:43 WSW 14 9 Cloudy BKN026 OVC031 72 63     73%   72 29.83        
Jun 16 12:54 SW 7 10 Cloudy SCT034 BKN043 OVC080 72 63     73%   72 29.83 29.81      
Jun 16 11:54   10 Cloudy OVC046 71 63     76%   71 29.85 29.83      
Jun 16 10:54 Calm 9 Mostly Cloudy SCT043 BKN050 BKN060 71 62     73%   71 29.85 29.82 0 0  
Jun 16 09:54 Calm 9 Cloudy OVC110 68 64     87%     29.87 29.84 0    
Jun 16 08:54 NE 3 10 Partly Cloudy FEW050 SCT110 68 62     81%     29.87 29.85      
Jun 16 07:54 NE 5 10 Mostly Cloudy BKN100 66 61     84%     29.89 29.87 0   0
Jun 16 06:54 NE 3 8 Cloudy OVC085 63 61     93%     29.89 29.87 0    
Jun 16 06:09 E 6 10 Light Rain OVC080 63 59     87%     29.9   0    
Jun 16 05:54 E 5 10 Light Rain OVC080 63 60     90%     29.9 29.88 0    
Jun 16 04:54 Calm 8 Cloudy OVC065 63 61     93%     29.91 29.88   0  
Jun 16 03:54 Calm 9 Cloudy OVC085 63 61     93%     29.9 29.88 0    
Jun 16 02:54 Calm 9 Light Rain BKN055 BKN075 OVC100 63 61     93%     29.92 29.9 0    
Jun 16 01:54 E 5 10 Light Rain SCT070 OVC090 64 60     87%     29.93 29.91 0   0
Jun 16 00:54 Calm 9 Light Rain SCT070 OVC095 64 61     90%     29.95 29.92 0    
Jun 15 23:54 Calm 10 Cloudy BKN047 OVC065 65 60     84%     29.96 29.94 0    
Jun 15 22:54 3 10 Cloudy FEW060 OVC090 70 55     59%     29.95 29.93      
Jun 15 21:54 WSW 6 10 Mostly Cloudy FEW090 BKN110 71 54     55%   70 29.94 29.92      
Jun 15 20:54 WSW 7 10 Cloudy FEW075 OVC100 71 54     55%   70 29.95 29.93      
Jun 15 19:54 W 8 10 Cloudy BKN080 OVC100 72 53     51%   71 29.96 29.94      
Jun 15 18:54 SW 8 10 Mostly Cloudy BKN060 BKN095 73 50     44%   72 29.97 29.95      
Jun 15 17:54 SW 11 10 Cloudy OVC100 75 49     40%   74 29.97 29.95      
Jun 15 16:54 SW 16 10 Mostly Clear FEW110 74 50     43%   73 29.98 29.97      
Jun 15 15:54 SW 17 10 Cloudy OVC085 75 49     40%   74 29.98 29.97      
May 15 00:54 SW 3 7 Mostly Clear FEW028 66 63     90%     29.93 29.91      
May 14 20:54 Calm 10 Clear   70 61     73%     29.87 29.85      
May 14 12:54   10 Mostly Clear FEW033 70 59     68%     29.99 29.98      
May 14 06:54 Calm 6 Fog/Mist BKN005 OVC010 52 52     100%     30.02 30.02      
May 14 06:40 Calm 7 Cloudy BKN004 OVC010 52 52     100%     30.01        
May 14 06:29 Calm 6 Clear   52 52     100%     30.01        
May 14 05:54 Calm 8 Clear   52 51     97%     30 30      
May 13 23:12 W 3 8 Light Rain OVC013 52 51     97%     30.06   0    
May 13 21:54 Calm 7 Light Rain OVC019 51 51     100%     30.04 30.04 0    
May 13 04:54 NE 6 10 Cloudy OVC010 50 47     89% 48   30.1 30.1      
May 12 19:54 NNE 5 5 Light Rain and Fog/Mist SCT005 OVC110 54 53     97%     30.06 30.06 0   0
May 12 18:09 ENE 5 2.5 Heavy Rain and Fog/Mist FEW003 BKN011 OVC075 53 53     100%     30.06   0    
Jun 10 08:54 Calm 8 Light Rain FEW080 OVC100 65 61     87%     30.01 29.99 0    
Jun 09 13:54 WNW 6 10 Mostly Clear FEW070 76 51     42%   75 29.8 29.78      
Jun 09 09:54 W 8 10 Clear CLR 63 50     63%     29.81 29.8      
Jun 09 00:54 ESE 5 10 Clear CLR 52 43     71%     29.81 29.79      
Jun 08 13:54 E 6 10 Clear CLR 72 44     37%   71 29.95 29.94      
Jun 08 05:54 ESE 5 10 Clear CLR 47 45     93% 45   30.05 30.04      
Jun 07 19:54 S 3 10 Clear CLR 65 48     54%     30.01 30      
Jun 06 14:07   7 Thunderstorms and Rain SCT022 BKN029 OVC090 62 55     78%     29.75   0    
Jun 06 12:54 E 3 10 Light Rain FEW046 SCT070 OVC085 63 56     78%     29.74 29.73 0    
Notice The following observation data may not be complete
Jun 06 10:15   1.75 Heavy Rain and Fog/Mist FEW004 OVC012          %         0    
Jun 06 07:43 ENE 5 2 Fog/Mist BKN008 OVC016 57 56     96%     29.72   0    
Notice The following observation data may not be complete
Jun 06 00:11   1.75 Thunderstorms and Heavy Rain and Fog/Mist BKN015 OVC020          %         0    
Jun 05 19:54 Calm 8 Cloudy BKN075 OVC100 70 63     78%     29.68 29.66      
Jun 05 16:54 WSW 10 8 Cloudy OVC044 73 61     66%   73 29.69 29.67